Location: Solstice Park, West Seattle
(47.5363°N, 122.3905°W)
Time: 09:21:33
(UTC-07:00)

ISS - Pass Details

Date: 19 May 2021
Orbit: 417 x 422 km, 51.6° (Epoch: 18 June)

Event Time Altitude Azimuth Distance (km) Brightness Sun altitude
Rises 00:48:05 0° 291° (WNW) 2,371 0.4 -22.5°
Reaches altitude 10° 00:50:14 10° 297° (WNW) 1,506 -0.6 -22.5°
Maximum altitude 00:53:32 51° 14° (NNE) 536 -3.0 -22.6°
Enters shadow 00:53:36 51° 19° (NNE) 536 -3.0 -22.6°
